DateTimeUTC,F1_A11,F1_S11,BsB_S11,BsG_S11,BsR_S11,BbsB_S11,BbsG_S11,BbsR_S11,BaB_A11,BaG_A11,BaR_A11,Tu_S11,T_S11,Uu_S11,U_S11,P_S11,T1_A11
2021-11-21T00:00:00Z,00000200,21000000,,,,,,,-000.26,-000.27,-000.18,18.7,25.4,,00.0,0629.8,30.8
2021-11-21T00:01:00Z,00000200,21000000,,,,,,,0000.37,-000.27,0000.05,18.7,25.4,,00.0,0629.8,30.8
2021-11-21T00:02:00Z,00000200,21000000,,,,,,,-000.26,-000.12,-000.06,18.6,25.4,,00.0,0629.8,30.8
2021-11-21T00:03:00Z,00000200,61000000,,,,,,,0000.65,0000.72,0000.62,18.6,25.4,,00.0,0629.8,30.8
2021-11-21T00:04:00Z,00000200,41000000,-000.15,0000.12,0000.18,-000.25,-000.10,0000.24,-000.23,-000.05,-000.14,18.6,25.2,,00.0,0630.5,30.8
2021-11-21T00:05:00Z,00000200,01000000,0000.52,0000.01,0000.16,0000.14,0000.01,0000.10,0000.01,0000.31,0000.05,18.7,25.1,,00.0,0630.5,30.8
2021-11-21T00:06:00Z,00000200,01000000,0000.48,-000.27,0000.15,0000.21,-000.32,-000.30,0000.13,-000.08,-000.15,18.7,25.1,,00.0,0630.4,30.8
2021-11-21T00:07:00Z,00000200,01000000,-000.42,-000.14,-000.18,0000.59,-000.11,0000.30,0000.06,0000.26,0000.34,18.8,25.1,,00.0,0630.4,30.8
2021-11-21T00:08:00Z,00000200,01000000,0000.01,-000.22,0000.13,0000.15,-000.08,0000.05,0000.49,0000.10,-000.17,18.8,25.2,,00.0,0630.4,30.8
2021-11-21T00:09:00Z,00000200,01000000,-000.57,-000.20,0000.06,-000.46,-000.02,-000.13,-000.13,0000.02,0000.39,18.9,25.2,,00.0,0630.4,30.9
2021-11-21T00:10:00Z,00000200,01000000,0000.36,-000.04,0000.22,-000.27,-000.08,0000.06,-000.08,-000.13,-000.22,19.0,25.2,,00.0,0630.4,30.9
2021-11-21T00:11:00Z,00000200,01000000,-000.30,-000.43,0000.36,0000.12,-000.14,0000.06,0000.30,0000.00,0000.11,19.0,25.3,,00.0,0630.4,30.9
2021-11-21T00:12:00Z,00000200,01000000,0000.27,-000.19,0000.04,-000.22,-000.23,0000.05,-000.36,-000.13,0000.06,19.1,25.3,,00.0,0630.3,30.9
2021-11-21T00:13:00Z,00000200,01000000,-000.32,-000.20,0000.34,0000.43,-000.30,0000.02,0000.09,-000.09,0000.34,19.1,25.3,,00.0,0630.3,30.9
2021-11-21T00:14:00Z,00000200,01000000,0000.65,-000.30,0000.01,-000.08,0000.41,0000.02,0000.02,0000.45,-000.08,19.0,25.3,,00.0,0630.2,30.9
2021-11-21T00:15:00Z,00000200,01000000,-000.09,0000.03,-000.07,-000.42,-000.00,-000.05,0000.16,-000.24,0000.04,18.9,25.3,,00.0,0630.2,30.8
2021-11-21T00:16:00Z,00000200,01000000,-000.00,0000.04,0000.42,0000.29,0000.08,0000.09,-000.10,0000.06,-000.14,18.9,25.2,,00.0,0630.2,30.8
2021-11-21T00:17:00Z,00000200,01000000,0000.29,0000.06,0000.06,0000.18,-000.25,0000.59,0000.24,-000.16,0000.22,18.8,25.2,,00.0,0630.1,30.8
2021-11-21T00:18:00Z,00000200,01000000,-000.39,-000.37,0000.27,-000.16,-000.15,0000.27,-000.24,0000.39,-000.13,18.8,25.1,,00.0,0630.2,30.8
2021-11-21T00:19:00Z,00000200,01000000,0000.70,0000.01,0000.15,-000.17,0000.17,-000.02,0000.36,0000.55,0000.30,18.8,25.1,,00.0,0630.1,30.8
2021-11-21T00:20:00Z,00000200,01000000,-000.32,-000.09,0000.02,-000.16,-000.34,0000.35,0000.02,-000.27,-000.04,18.8,25.1,,00.0,0630.1,30.8
2021-11-21T00:21:00Z,00000200,01000000,0000.32,0000.19,-000.14,-000.04,-000.03,0000.10,0000.44,0000.37,0000.27,18.8,25.2,,00.0,0630.2,30.9
2021-11-21T00:22:00Z,00000200,01000000,-000.29,0000.02,0000.32,0000.68,-000.18,0000.13,0000.06,-000.44,-000.03,18.9,25.2,,00.0,0630.2,30.8
2021-11-21T00:23:00Z,00000200,01000000,-000.15,-000.22,-000.29,0000.77,-000.24,-000.17,-000.19,0000.12,-000.08,18.9,25.2,,00.0,0630.1,30.9
2021-11-21T00:24:00Z,00000200,01000000,-000.11,-000.18,0000.05,-000.25,-000.10,-000.07,0000.37,0000.46,0000.43,19.0,25.2,,00.0,0630.1,30.9
2021-11-21T00:25:00Z,00000200,01000000,0000.22,-000.13,-000.20,0000.33,-000.08,0000.25,-000.28,-000.22,0000.07,19.0,25.3,,00.0,0630.1,30.9
2021-11-21T00:26:00Z,00000200,01000000,0000.15,-000.10,0000.00,-000.03,-000.02,-000.09,0000.33,-000.01,-000.12,19.1,25.3,,00.0,0630.0,30.9
2021-11-21T00:27:00Z,00000200,01000000,0000.07,-000.26,0000.03,0000.29,0000.02,0000.01,-000.01,0000.38,0000.14,19.2,25.3,,00.0,0629.9,30.9
2021-11-21T00:28:00Z,00000200,01000000,-000.03,-000.13,0000.32,-000.02,-000.11,-000.03,-000.29,0000.10,-000.05,19.2,25.4,,00.0,0629.9,30.9
2021-11-21T00:29:00Z,00000200,01000000,0000.08,-000.07,0000.04,-000.11,-000.11,0000.22,0000.32,0000.08,0000.28,19.1,25.3,,00.0,0629.8,30.9
2021-11-21T00:30:00Z,00000200,01000000,-000.18,-000.07,-000.17,0000.35,0000.06,-000.39,0000.09,-000.22,0000.12,19.1,25.3,,00.0,0629.7,30.9
2021-11-21T00:31:00Z,00000200,01000000,0000.31,-000.10,-000.06,0000.52,-000.02,-000.04,0000.02,-000.08,-000.45,19.0,25.3,,00.0,0629.7,30.8
2021-11-21T00:32:00Z,00000200,01000000,0000.08,-000.13,0000.10,-000.16,0000.13,-000.03,-000.00,0000.26,0000.05,18.9,25.2,,00.0,0629.7,30.8
2021-11-21T00:33:00Z,00000200,01000000,-000.35,0000.12,-000.22,0000.06,0000.19,-000.30,0000.12,-000.10,0000.46,18.8,25.2,,00.0,0629.7,30.8
2021-11-21T00:34:00Z,00000200,01000000,-000.03,-000.02,0000.29,0000.05,0000.07,-000.03,0000.16,0000.15,-000.13,18.8,25.2,,00.0,0629.7,30.8
2021-11-21T00:35:00Z,00000200,01000000,0000.69,0000.07,0000.20,0000.04,-000.15,0000.32,0000.50,0000.29,0000.36,18.8,25.2,,00.0,0629.7,30.9
2021-11-21T00:36:00Z,00000200,01000000,-000.29,-000.03,-000.02,0000.22,0000.16,-000.27,0000.04,0000.28,-000.15,18.9,25.2,,00.0,0629.7,30.8
2021-11-21T00:37:00Z,00000200,01000000,-000.14,-000.30,-000.03,0000.37,-000.35,0000.07,0000.41,0000.34,0000.30,18.9,25.2,00.0,00.0,0629.6,30.8
2021-11-21T00:38:00Z,00000200,01000000,-000.33,-000.11,0000.03,-000.20,0000.13,-000.11,-000.30,-000.00,0000.31,19.0,25.3,,00.0,0629.7,30.9
2021-11-21T00:39:00Z,00000200,01000000,-000.39,0000.21,0000.37,-000.04,0000.12,0000.22,-000.10,-000.48,-000.33,19.0,25.3,,00.0,0629.7,30.9
2021-11-21T00:40:00Z,00000200,01000000,0001.05,0000.44,0000.49,0000.46,-000.09,0000.31,-000.36,-000.08,0000.04,19.1,25.3,,00.0,0629.7,30.9
2021-11-21T00:41:00Z,00000200,01000000,0000.90,-000.17,-000.20,-000.05,0000.02,0000.02,0000.09,0000.26,-000.14,19.1,25.3,,00.0,0629.7,30.9
2021-11-21T00:42:00Z,00000200,01000000,-000.55,-000.26,-000.05,-000.48,-000.01,-000.21,0000.34,-000.22,0000.01,19.0,25.3,,00.0,0629.7,30.9
2021-11-21T00:43:00Z,00000200,01000000,0000.98,-000.15,0000.03,0000.30,-000.14,0000.24,-000.61,0000.12,0000.28,18.9,25.2,,00.0,0629.7,30.8
2021-11-21T00:44:00Z,00000200,01000000,0000.72,-000.27,0000.21,0000.16,-000.16,0000.01,0000.22,0000.08,-000.27,18.8,25.2,,00.0,0629.7,30.8
2021-11-21T00:45:00Z,00000200,01000000,0000.24,-000.19,0000.23,0000.37,-000.20,0000.37,0000.06,-000.12,0000.05,18.8,25.1,,00.0,0629.7,30.8
2021-11-21T00:46:00Z,00000200,01000000,-000.18,-000.12,-000.01,-000.23,-000.11,-000.13,0000.18,0000.02,0000.00,18.7,25.1,,00.0,0629.6,30.7
2021-11-21T00:47:00Z,00000200,01000000,-000.56,-000.13,-000.22,0000.41,-000.14,0000.10,-000.01,0000.21,0000.25,18.7,25.1,,00.0,0629.6,30.8
2021-11-21T00:48:00Z,00000200,01000000,0000.04,-000.40,0000.09,0000.45,0000.22,0000.34,0000.15,0000.24,-000.10,18.6,25.0,00.0,00.0,0629.5,30.8
2021-11-21T00:49:00Z,00000200,01000000,-000.09,-000.45,0000.42,0000.06,-000.01,0000.04,0000.19,0000.21,0000.24,18.6,25.0,00.0,00.0,0629.5,30.8
2021-11-21T00:50:00Z,00000200,01000000,-000.07,-000.51,0000.11,0000.24,0000.23,-000.05,0000.13,-000.43,-000.01,18.6,25.0,00.0,00.0,0629.5,30.8
2021-11-21T00:51:00Z,00000200,01000000,0000.03,-000.01,0000.30,-000.13,0000.10,0000.07,0000.58,0000.69,0000.27,18.7,25.1,,00.0,0629.5,30.8
2021-11-21T00:52:00Z,00000200,01000000,-000.20,-000.23,0000.33,0000.17,-000.15,-000.17,-000.13,0000.07,0000.07,18.7,25.1,,00.0,0629.4,30.8
2021-11-21T00:53:00Z,00000200,01000000,0000.16,0000.07,0000.55,0000.21,0000.06,0000.22,0000.14,0000.34,0000.48,18.8,25.1,,00.0,0629.4,30.8
2021-11-21T00:54:00Z,00000200,01000000,-000.02,-000.02,-000.20,0000.23,0000.32,0000.02,-000.08,-000.29,-000.24,18.8,25.1,00.0,00.0,0629.4,30.8
2021-11-21T00:55:00Z,00000200,01000000,-000.67,-000.25,0000.23,0000.81,-000.11,0000.16,-000.05,0000.04,0000.13,18.9,25.2,,00.0,0629.4,30.8
2021-11-21T00:56:00Z,00000200,01000000,-000.29,-000.07,-000.12,-000.02,-000.03,-000.13,0000.06,-000.06,-000.15,19.0,25.2,,00.0,0629.4,30.9
2021-11-21T00:57:00Z,00000200,41000000,,,,,,,-000.23,-000.15,-000.38,19.0,25.2,,00.0,0629.5,30.9
2021-11-21T00:58:00Z,00000200,61000000,,,,,,,-000.20,-000.12,0000.19,18.8,25.3,,00.0,0628.5,30.9
2021-11-21T00:59:00Z,00000200,21000000,,,,,,,-000.00,-000.21,-000.22,18.7,25.4,,00.0,0628.5,30.8
